Weather History for KHST - April, 2014

Change the Weather History Date:

Thursday, April 17, 2014

  Actual Average Record
Temperature  
Mean Temperature 79 °F -  
Max Temperature 83 °F 83 °F 93 °F (1944)
Min Temperature 75 °F 60 °F 45 °F (1952)
Cooling Degree Days 14    
Growing Degree Days 29 (Base 50)    
Moisture  
Dew Point 69 °F    
Average Humidity 76    
Maximum Humidity 80    
Minimum Humidity 66    
Precipitation  
Precipitation 0.07 in - - ()
Sea Level Pressure  
Sea Level Pressure 30.08 in    
Wind  
Wind Speed 10 mph (East)    
Max Wind Speed 17 mph    
Max Gust Speed 24 mph    
Visibility 10 miles    
Events Rain    
Averages and records for this station are not official NWS values.
T = Trace of Precipitation, MM = Missing Value Source: NWS Daily Summary

Daily Weather History Graph

Daily Weather History Graph

Search for Another Location

Airport or City:

Trip Planner

Search our weather history database for the weather conditions in past years. The results will help you decide how hot, cold, wet, or windy it might be!

Date:

Astronomy

Apr. 17, 2014 Rise Set
Actual Time 6:57 AM EDT 7:45 PM EDT
Civil Twilight 6:33 AM EDT 8:09 PM EDT
Nautical Twilight 6:05 AM EDT 8:36 PM EDT
Astronomical Twilight 5:37 AM EDT 9:05 PM EDT
Moon 10:17 PM EDT (4/17) 8:37 AM EDT (4/17)
Length of Visible Light 13h 35m
Length of Day
12h 48m
Waning Gibbous, 94% of the Moon is Illuminated
Apr 17
Waning Gibbous
Apr 22
Last Quarter
Apr 29
New
May 6
First Quarter
May 14
Full

Hourly Weather History & Observations

Time (EDT) Temp. Heat Index Dew Point Humidity Pressure Visibility Wind Dir Wind Speed Gust Speed Precip Events Conditions
12:58 AM 76.3 °F - 68.7 °F 77% 30.08 in 10.0 mi East 11.5 mph - N/A   Clear
1:58 AM 76.1 °F - 68.5 °F 77% 30.06 in 10.0 mi East 6.9 mph - N/A   Partly Cloudy
2:58 AM 75.2 °F - 68.0 °F 78% 30.05 in 10.0 mi East 8.1 mph - N/A   Clear
3:58 AM 75.0 °F - 67.5 °F 77% 30.04 in 10.0 mi East 6.9 mph - N/A   Clear
4:58 AM 76.3 °F - 68.2 °F 76% 30.05 in 10.0 mi East 9.2 mph - N/A   Clear
5:58 AM 75.9 °F - 68.5 °F 78% 30.06 in 10.0 mi ENE 5.8 mph - N/A   Clear
6:06 AM 77.0 °F - 69.8 °F 78% 30.05 in 10.0 mi ENE 8.1 mph - N/A Rain Light Rain
6:19 AM 75.2 °F - 68.0 °F 78% 30.05 in 10.0 mi ENE 6.9 mph - N/A   Partly Cloudy
6:39 AM 75.2 °F - 68.0 °F 78% 30.05 in 10.0 mi East 10.4 mph - N/A   Mostly Cloudy
6:40 AM 77.0 °F - 68.0 °F 74% 30.05 in 8.0 mi ENE 12.7 mph - N/A Rain Light Rain
6:45 AM 75.2 °F - 68.0 °F 78% 30.05 in 7.0 mi ENE 10.4 mph - N/A Rain Light Rain
6:50 AM 75.2 °F - 68.0 °F 78% 30.05 in 8.0 mi East 6.9 mph - N/A Rain Light Rain
6:55 AM 75.2 °F - 68.0 °F 78% 30.06 in 10.0 mi East 8.1 mph - N/A Rain Light Rain
6:58 AM 75.2 °F - 68.0 °F 78% 30.07 in 10.0 mi East 6.9 mph - 0.03 in Rain Light Rain
7:03 AM 75.2 °F - 68.0 °F 78% 30.06 in 10.0 mi East 8.1 mph - N/A Rain Light Rain
7:05 AM 75.2 °F - 68.0 °F 78% 30.06 in 10.0 mi East 8.1 mph - N/A   Scattered Clouds
7:58 AM 75.9 °F - 69.4 °F 80% 30.09 in 10.0 mi ENE 8.1 mph - 0.00 in   Partly Cloudy
8:58 AM 78.8 °F - 69.6 °F 73% 30.10 in 10.0 mi East 8.1 mph - N/A   Partly Cloudy
9:58 AM 79.7 °F - 70.3 °F 73% 30.11 in 10.0 mi ENE 10.4 mph - N/A   Scattered Clouds
10:33 AM 78.8 °F - 69.8 °F 74% 30.12 in 10.0 mi ENE 10.4 mph 17.3 mph N/A   Mostly Cloudy
10:38 AM 78.8 °F - 69.8 °F 74% 30.11 in 10.0 mi NE 15.0 mph - N/A   Mostly Cloudy
10:48 AM 80.6 °F 84.6 °F 71.6 °F 74% 30.12 in 10.0 mi ENE 9.2 mph - N/A   Scattered Clouds
10:53 AM 80.6 °F 84.6 °F 71.6 °F 74% 30.12 in 10.0 mi ENE 10.4 mph - N/A   Mostly Cloudy
10:58 AM 81.5 °F 85.5 °F 70.9 °F 70% 30.13 in 10.0 mi East 12.7 mph - 0.01 in   Mostly Cloudy
11:03 AM 82.4 °F 86.3 °F 69.8 °F 66% 30.12 in 10.0 mi East 11.5 mph - N/A   Scattered Clouds
11:58 AM 83.5 °F 89.4 °F 72.7 °F 70% 30.12 in 10.0 mi East 15.0 mph - N/A   Clear
12:58 PM 79.3 °F - 71.4 °F 77% 30.12 in 10.0 mi East 10.4 mph - N/A   Clear
1:58 PM 78.4 °F - 70.9 °F 77% 30.11 in 10.0 mi East 12.7 mph - N/A   Clear
2:58 PM 78.4 °F - 70.9 °F 77% 30.10 in 10.0 mi ENE 10.4 mph - N/A   Clear
3:58 PM 80.8 °F 84.9 °F 71.8 °F 74% 30.07 in 10.0 mi East 12.7 mph - N/A   Partly Cloudy
4:58 PM 81.5 °F 85.7 °F 71.4 °F 71% 30.07 in 10.0 mi ENE 17.3 mph 24.2 mph N/A   Partly Cloudy
5:52 PM 80.6 °F 84.6 °F 71.6 °F 74% 30.06 in 9.0 mi East 16.1 mph - N/A Rain Light Rain
5:58 PM 79.5 °F - 72.0 °F 78% 30.07 in 3.0 mi ENE 12.7 mph - 0.02 in Rain Heavy Rain
6:07 PM 77.0 °F - 69.8 °F 78% 30.06 in 10.0 mi ENE 9.2 mph - N/A   Partly Cloudy
6:58 PM 78.6 °F - 70.9 °F 77% 30.07 in 10.0 mi East 13.8 mph - 0.00 in   Partly Cloudy
7:58 PM 77.4 °F - 69.8 °F 77% 30.06 in 10.0 mi ENE 13.8 mph - N/A   Partly Cloudy
8:58 PM 77.4 °F - 69.4 °F 76% 30.08 in 10.0 mi ENE 11.5 mph - N/A   Partly Cloudy
9:58 PM 77.5 °F - 68.9 °F 75% 30.09 in 10.0 mi East 12.7 mph 20.7 mph N/A   Partly Cloudy
10:53 PM 77.0 °F - 68.0 °F 74% 30.09 in 10.0 mi East 9.2 mph 17.3 mph N/A   Mostly Cloudy
10:58 PM 76.5 °F - 68.7 °F 77% 30.10 in 10.0 mi ESE 10.4 mph - N/A   Mostly Cloudy
11:08 PM 77.0 °F - 68.0 °F 74% 30.09 in 10.0 mi East 10.4 mph - N/A   Scattered Clouds
11:10 PM 77.0 °F - 68.0 °F 74% 30.09 in 10.0 mi East 12.7 mph - N/A Rain Light Rain
11:42 PM 75.2 °F - 68.0 °F 78% 30.09 in 10.0 mi East 8.1 mph - N/A   Clear
11:58 PM 76.5 °F - 68.0 °F 75% 30.10 in 10.0 mi East 12.7 mph 18.4 mph 0.01 in   Clear